| time (UTC) | temp F | wind direction | speed MPH | gust MPH | rain 1hr in | rain 24hr in | rain mn in | humidity % | barometer mb |
| 20260508060006 | 38 | 360 | 3.0 | 8.0 | 0.00 | 0.00 | 0.00 | 84 | 1011.4 |
| 20260508055006 | 38 | 360 | 2.0 | 10.0 | 0.00 | 0.00 | 0.00 | 84 | 1011.3 |
| 20260508054003 | 38 | 360 | 2.0 | 8.0 | 0.00 | 0.00 | 0.00 | 84 | 1011.1 |
| 20260508053004 | 38 | 360 | 2.0 | 7.0 | 0.00 | 0.00 | 0.00 | 84 | 1011.1 |
| 20260508052213 | 38 | 360 | 2.0 | 7.0 | 0.00 | 0.00 | 0.00 | 84 | 1011.0 |
| 20260508051004 | 38 | 360 | 1.0 | 7.0 | 0.00 | 0.00 | 0.00 | 84 | 1011.0 |
| 20260508050003 | 38 | 360 | 1.0 | 3.0 | 0.00 | 0.00 | 0.00 | 84 | 1011.0 |
| 20260508045003 | 38 | 360 | 1.0 | 4.0 | 0.00 | 0.00 | 0.00 | 84 | 1011.0 |
| 20260508044003 | 38 | 360 | 1.0 | 4.0 | 0.00 | 0.00 | 0.00 | 84 | 1011.0 |
| 20260508043003 | 38 | 360 | 1.0 | 5.0 | 0.00 | 0.00 | 0.00 | 84 | 1011.1 |
| 20260508042004 | 38 | 360 | 1.0 | 5.0 | 0.00 | 0.00 | 0.00 | 84 | 1011.1 |
| 20260508041004 | 38 | 360 | 0.0 | 2.0 | 0.00 | 0.00 | 0.00 | 84 | 1010.9 |
| 20260508040008 | 38 | 360 | 0.0 | 4.0 | 0.00 | 0.00 | 0.00 | 84 | 1011.2 |
| 20260508035003 | 38 | 360 | 0.0 | 3.0 | 0.00 | 0.00 | 0.00 | 84 | 1010.9 |
| 20260508034004 | 38 | 360 | 1.0 | 4.0 | 0.00 | 0.00 | 0.00 | 84 | 1010.8 |
| 20260508033003 | 38 | 360 | 1.0 | 4.0 | 0.00 | 0.00 | 0.00 | 84 | 1011.0 |
| 20260508032004 | 38 | 360 | 0.0 | 3.0 | 0.00 | 0.00 | 0.00 | 84 | 1010.8 |
| 20260508031004 | 38 | 360 | 1.0 | 4.0 | 0.00 | 0.00 | 0.00 | 84 | 1010.6 |
| 20260508030004 | 38 | 0 | 0.0 | 2.0 | 0.00 | 0.00 | 0.00 | 84 | 1010.8 |
| 20260508025005 | 38 | 360 | 0.0 | 4.0 | 0.00 | 0.00 | 0.00 | 84 | 1010.6 |
| 20260508024004 | 38 | 0 | 0.0 | 0.0 | 0.00 | 0.00 | 0.00 | 84 | 1010.5 |
| 20260508023004 | 38 | 0 | 0.0 | 0.0 | 0.00 | 0.00 | 0.00 | 84 | 1010.4 |
| 20260508022214 | 38 | 360 | 0.0 | 2.0 | 0.00 | 0.00 | 0.00 | 84 | 1010.4 |
| 20260508021004 | 38 | 360 | 0.0 | 3.0 | 0.00 | 0.00 | 0.00 | 84 | 1010.6 |
| 20260508020004 | 38 | 360 | 0.0 | 3.0 | 0.00 | 0.00 | 0.00 | 84 | 1010.7 |
| 20260508015004 | 38 | 360 | 0.0 | 2.0 | 0.00 | 0.00 | 0.00 | 84 | 1010.7 |
| 20260508014004 | 38 | 0 | 0.0 | 2.0 | 0.00 | 0.00 | 0.00 | 84 | 1010.8 |
| 20260508013004 | 38 | 360 | 0.0 | 2.0 | 0.00 | 0.00 | 0.00 | 84 | 1010.6 |
| 20260508012005 | 38 | 0 | 0.0 | 0.0 | 0.00 | 0.00 | 0.00 | 84 | 1010.7 |
| 20260508011007 | 38 | 0 | 0.0 | 0.0 | 0.00 | 0.00 | 0.00 | 84 | 1010.6 |
| 20260508010005 | 38 | 360 | 0.0 | 2.0 | 0.00 | 0.00 | 0.00 | 84 | 1010.5 |
| 20260508005004 | 38 | 0 | 0.0 | 0.0 | 0.00 | 0.00 | 0.00 | 84 | 1010.4 |
| 20260508004215 | 38 | 360 | 0.0 | 3.0 | 0.00 | 0.00 | 0.00 | 84 | 1010.4 |
| 20260508003213 | 38 | 360 | 0.0 | 3.0 | 0.00 | 0.00 | 0.00 | 84 | 1010.5 |
| 20260508002005 | 38 | 360 | 1.0 | 3.0 | 0.00 | 0.00 | 0.00 | 84 | 1010.4 |
| 20260508001003 | 38 | 360 | 1.0 | 4.0 | 0.00 | 0.00 | 0.00 | 84 | 1010.3 |
| 20260508000004 | 38 | 360 | 2.0 | 5.0 | 0.00 | 0.00 | 0.00 | 84 | 1010.1 |
| 20260507235006 | 38 | 360 | 2.0 | 7.0 | 0.00 | 0.00 | 0.00 | 84 | 1010.2 |
| 20260507234215 | 38 | 360 | 2.0 | 7.0 | 0.00 | 0.00 | 0.00 | 84 | 1010.0 |
| 20260507233217 | 38 | 360 | 2.0 | 6.0 | 0.00 | 0.00 | 0.00 | 84 | 1010.0 |
| 20260507232003 | 38 | 360 | 3.0 | 10.0 | 0.00 | 0.00 | 0.00 | 84 | 1010.0 |
| 20260507231003 | 38 | 360 | 2.0 | 10.0 | 0.00 | 0.00 | 0.00 | 84 | 1010.1 |
| 20260507230215 | 38 | 360 | 3.0 | 7.0 | 0.00 | 0.00 | 0.00 | 84 | 1010.1 |
| 20260507225003 | 38 | 360 | 2.0 | 6.0 | 0.00 | 0.00 | 0.00 | 84 | 1010.0 |
| 20260507224003 | 38 | 360 | 3.0 | 10.0 | 0.00 | 0.00 | 0.00 | 84 | 1009.9 |
| 20260507223003 | 38 | 360 | 4.0 | 15.0 | 0.00 | 0.00 | 0.00 | 84 | 1010.0 |
| 20260507222007 | 38 | 360 | 3.0 | 10.0 | 0.00 | 0.00 | 0.00 | 84 | 1009.9 |
| 20260507221212 | 38 | 360 | 3.0 | 10.0 | 0.00 | 0.00 | 0.00 | 84 | 1009.9 |
| 20260507220003 | 38 | 360 | 4.0 | 13.0 | 0.00 | 0.00 | 0.00 | 84 | 1009.9 |
| 20260507215003 | 38 | 360 | 4.0 | 12.0 | 0.00 | 0.00 | 0.00 | 84 | 1010.0 |
| 20260507214003 | 38 | 360 | 4.0 | 12.0 | 0.00 | 0.00 | 0.00 | 84 | 1010.0 |
| 20260507213214 | 38 | 360 | 4.0 | 12.0 | 0.00 | 0.00 | 0.00 | 84 | 1010.0 |
| 20260507212003 | 38 | 360 | 5.0 | 16.0 | 0.00 | 0.00 | 0.00 | 84 | 1010.0 |
| 20260507211004 | 38 | 360 | 4.0 | 16.0 | 0.00 | 0.00 | 0.00 | 84 | 1010.0 |
| 20260507210003 | 38 | 360 | 4.0 | 10.0 | 0.00 | 0.00 | 0.00 | 84 | 1009.9 |
| 20260507205003 | 38 | 360 | 5.0 | 12.0 | 0.00 | 0.00 | 0.00 | 84 | 1010.0 |
| 20260507204004 | 38 | 360 | 5.0 | 11.0 | 0.00 | 0.00 | 0.00 | 84 | 1010.0 |
| 20260507203214 | 38 | 360 | 6.0 | 13.0 | 0.00 | 0.00 | 0.00 | 84 | 1009.9 |
| 20260507202004 | 38 | 360 | 6.0 | 15.0 | 0.00 | 0.00 | 0.00 | 84 | 1009.9 |
| 20260507201004 | 38 | 360 | 6.0 | 12.0 | 0.00 | 0.00 | 0.00 | 84 | 1010.0 |
| 20260507200004 | 38 | 360 | 7.0 | 22.0 | 0.00 | 0.00 | 0.00 | 84 | 1010.2 |
| 20260507195213 | 38 | 360 | 6.0 | 19.0 | 0.00 | 0.00 | 0.00 | 84 | 1010.2 |
| 20260507194005 | 38 | 360 | 5.0 | 11.0 | 0.00 | 0.00 | 0.00 | 84 | 1010.3 |
| 20260507193004 | 38 | 360 | 6.0 | 15.0 | 0.00 | 0.00 | 0.00 | 84 | 1010.4 |
| 20260507192005 | 38 | 360 | 6.0 | 13.0 | 0.00 | 0.00 | 0.00 | 84 | 1010.4 |
| 20260507191213 | 38 | 360 | 5.0 | 14.0 | 0.00 | 0.00 | 0.00 | 84 | 1010.4 |
| 20260507190005 | 38 | 360 | 5.0 | 11.0 | 0.00 | 0.01 | 0.00 | 84 | 1010.8 |
| 20260507185004 | 38 | 360 | 5.0 | 13.0 | 0.00 | 0.01 | 0.00 | 84 | 1010.8 |
| 20260507184004 | 38 | 360 | 4.0 | 13.0 | 0.00 | 0.01 | 0.00 | 84 | 1010.8 |
| 20260507183003 | 38 | 360 | 3.0 | 9.0 | 0.00 | 0.01 | 0.00 | 84 | 1010.8 |
| 20260507182004 | 38 | 360 | 3.0 | 9.0 | 0.00 | 0.01 | 0.00 | 84 | 1011.0 |
| 20260507181005 | 38 | 360 | 4.0 | 9.0 | 0.00 | 0.01 | 0.00 | 84 | 1010.8 |
| 20260507180004 | 38 | 360 | 3.0 | 8.0 | 0.00 | 0.01 | 0.00 | 84 | 1011.0 |
| 20260507175213 | 38 | 360 | 3.0 | 8.0 | 0.00 | 0.01 | 0.00 | 84 | 1011.0 |
| 20260507174004 | 38 | 360 | 4.0 | 11.0 | 0.00 | 0.01 | 0.00 | 84 | 1011.3 |
| 20260507173006 | 38 | 360 | 4.0 | 10.0 | 0.00 | 0.01 | 0.00 | 84 | 1011.3 |
| 20260507172003 | 38 | 360 | 4.0 | 10.0 | 0.00 | 0.01 | 0.00 | 84 | 1011.3 |
| 20260507171003 | 38 | 360 | 3.0 | 8.0 | 0.00 | 0.02 | 0.00 | 84 | 1011.6 |
| 20260507170006 | 38 | 360 | 4.0 | 12.0 | 0.00 | 0.02 | 0.00 | 84 | 1011.5 |
| 20260507165004 | 38 | 360 | 3.0 | 11.0 | 0.00 | 0.02 | 0.00 | 84 | 1011.7 |
| 20260507164005 | 38 | 360 | 3.0 | 10.0 | 0.00 | 0.02 | 0.00 | 84 | 1011.7 |
| 20260507163214 | 38 | 360 | 3.0 | 10.0 | 0.00 | 0.02 | 0.00 | 84 | 1011.7 |
| 20260507162006 | 38 | 360 | 4.0 | 10.0 | 0.00 | 0.02 | 0.00 | 84 | 1011.9 |
| 20260507161003 | 38 | 360 | 4.0 | 7.0 | 0.00 | 0.04 | 0.00 | 84 | 1012.0 |
| 20260507160004 | 38 | 360 | 3.0 | 11.0 | 0.00 | 0.04 | 0.00 | 84 | 1012.1 |
| 20260507155003 | 38 | 360 | 2.0 | 5.0 | 0.00 | 0.06 | 0.00 | 84 | 1012.3 |
| 20260507154003 | 38 | 360 | 3.0 | 10.0 | 0.00 | 0.08 | 0.00 | 84 | 1012.4 |
| 20260507153003 | 38 | 360 | 4.0 | 10.0 | 0.00 | 0.09 | 0.00 | 84 | 1012.5 |
| 20260507152003 | 38 | 360 | 3.0 | 10.0 | 0.00 | 0.11 | 0.00 | 84 | 1012.6 |
| 20260507151003 | 38 | 360 | 2.0 | 6.0 | 0.00 | 0.12 | 0.00 | 84 | 1012.5 |
| 20260507150003 | 38 | 360 | 3.0 | 7.0 | 0.00 | 0.12 | 0.00 | 84 | 1012.6 |
| 20260507145213 | 38 | 360 | 3.0 | 9.0 | 0.00 | 0.12 | 0.00 | 84 | 1012.6 |
| 20260507144003 | 38 | 360 | 3.0 | 9.0 | 0.00 | 0.13 | 0.00 | 84 | 1012.7 |
| 20260507143005 | 38 | 360 | 3.0 | 10.0 | 0.00 | 0.13 | 0.00 | 84 | 1012.7 |
| 20260507142004 | 38 | 360 | 4.0 | 9.0 | 0.00 | 0.14 | 0.00 | 84 | 1012.7 |
| 20260507141004 | 38 | 360 | 3.0 | 8.0 | 0.00 | 0.15 | 0.00 | 84 | 1012.8 |
| 20260507140006 | 38 | 360 | 3.0 | 8.0 | 0.00 | 0.15 | 0.00 | 84 | 1012.9 |
| 20260507135007 | 38 | 360 | 4.0 | 10.0 | 0.00 | 0.17 | 0.00 | 84 | 1013.0 |
| 20260507134004 | 38 | 360 | 3.0 | 8.0 | 0.00 | 0.18 | 0.00 | 84 | 1012.8 |
| 20260507133005 | 38 | 360 | 3.0 | 8.0 | 0.00 | 0.19 | 0.00 | 84 | 1012.8 |
| 20260507132006 | 38 | 360 | 3.0 | 8.0 | 0.00 | 0.20 | 0.00 | 84 | 1012.8 |
| 20260507131005 | 38 | 360 | 3.0 | 9.0 | 0.00 | 0.22 | 0.00 | 84 | 1012.8 |
| 20260507130215 | 38 | 360 | 4.0 | 12.0 | 0.00 | 0.25 | 0.00 | 84 | 1012.6 |
| 20260507125215 | 38 | 360 | 4.0 | 11.0 | 0.00 | 0.28 | 0.00 | 84 | 1013.0 |
| 20260507124004 | 38 | 360 | 3.0 | 9.0 | 0.00 | 0.32 | 0.00 | 84 | 1012.9 |
| 20260507123005 | 38 | 360 | 4.0 | 10.0 | 0.00 | 0.34 | 0.00 | 84 | 1012.8 |
| 20260507122004 | 38 | 360 | 3.0 | 10.0 | 0.00 | 0.37 | 0.00 | 84 | 1012.7 |
| 20260507121005 | 38 | 360 | 2.0 | 7.0 | 0.00 | 0.38 | 0.00 | 84 | 1012.6 |
| 20260507120004 | 38 | 360 | 2.0 | 6.0 | 0.00 | 0.39 | 0.00 | 84 | 1012.7 |
| 20260507115004 | 38 | 360 | 1.0 | 5.0 | 0.00 | 0.40 | 0.00 | 84 | 1012.4 |
| 20260507114214 | 38 | 360 | 2.0 | 7.0 | 0.00 | 0.40 | 0.00 | 84 | 1012.5 |
| 20260507113214 | 38 | 360 | 2.0 | 6.0 | 0.00 | 0.41 | 0.00 | 84 | 1012.4 |
| 20260507112003 | 38 | 360 | 2.0 | 7.0 | 0.00 | 0.43 | 0.00 | 84 | 1012.5 |
| 20260507111004 | 38 | 360 | 2.0 | 7.0 | 0.00 | 0.44 | 0.00 | 84 | 1012.2 |
| 20260507110005 | 38 | 360 | 1.0 | 6.0 | 0.00 | 0.48 | 0.00 | 84 | 1012.2 |
| 20260507105003 | 38 | 360 | 1.0 | 5.0 | 0.00 | 0.51 | 0.00 | 84 | 1012.1 |
| 20260507104004 | 38 | 360 | 2.0 | 6.0 | 0.00 | 0.51 | 0.00 | 84 | 1012.1 |
| 20260507103006 | 38 | 360 | 2.0 | 7.0 | 0.00 | 0.52 | 0.00 | 84 | 1012.1 |
| 20260507102003 | 38 | 360 | 2.0 | 5.0 | 0.00 | 0.53 | 0.00 | 84 | 1012.0 |
| 20260507101003 | 38 | 360 | 1.0 | 5.0 | 0.00 | 0.53 | 0.00 | 84 | 1011.9 |
| 20260507100003 | 38 | 360 | 1.0 | 4.0 | 0.00 | 0.53 | 0.00 | 84 | 1012.0 |
| 20260507095005 | 38 | 360 | 1.0 | 5.0 | 0.00 | 0.53 | 0.00 | 85 | 1011.9 |
| 20260507094005 | 38 | 360 | 1.0 | 5.0 | 0.00 | 0.54 | 0.00 | 85 | 1012.0 |
| 20260507093006 | 38 | 360 | 1.0 | 3.0 | 0.00 | 0.56 | 0.00 | 85 | 1011.9 |
| 20260507092004 | 38 | 360 | 2.0 | 5.0 | 0.00 | 0.57 | 0.00 | 85 | 1011.8 |
| 20260507091004 | 39 | 360 | 2.0 | 7.0 | 0.00 | 0.58 | 0.00 | 84 | 1012.0 |
| 20260507090005 | 39 | 360 | 1.0 | 6.0 | 0.00 | 0.59 | 0.00 | 86 | 1012.1 |
| 20260507085003 | 39 | 360 | 1.0 | 5.0 | 0.00 | 0.59 | 0.00 | 87 | 1012.3 |
| 20260507084003 | 39 | 360 | 1.0 | 4.0 | 0.00 | 0.60 | 0.00 | 87 | 1012.1 |
| 20260507083005 | 39 | 360 | 1.0 | 4.0 | 0.00 | 0.61 | 0.00 | 88 | 1012.3 |
| 20260507082213 | 39 | 360 | 1.0 | 4.0 | 0.00 | 0.63 | 0.00 | 87 | 1012.4 |
| 20260507081003 | 40 | 360 | 2.0 | 4.0 | 0.00 | 0.64 | 0.00 | 87 | 1012.2 |
| 20260507080003 | 40 | 360 | 0.0 | 4.0 | 0.00 | 0.66 | 0.00 | 87 | 1012.1 |
| 20260507075004 | 40 | 360 | 1.0 | 5.0 | 0.00 | 0.66 | 0.00 | 88 | 1012.0 |
| 20260507074213 | 41 | 360 | 1.0 | 6.0 | 0.00 | 0.67 | 0.00 | 87 | 1012.1 |
| 20260507073215 | 41 | 360 | 0.0 | 6.0 | 0.00 | 0.67 | 0.00 | 87 | 1012.2 |
| 20260507072006 | 41 | 360 | 1.0 | 4.0 | 0.00 | 0.67 | 0.00 | 87 | 1011.8 |
| 20260507071215 | 41 | 360 | 1.0 | 7.0 | 0.00 | 0.67 | 0.00 | 86 | 1011.8 |
| 20260507070009 | 42 | 360 | 1.0 | 6.0 | 0.00 | 0.67 | 0.00 | 87 | 1011.9 |
| 20260507065006 | 42 | 360 | 1.0 | 4.0 | 0.00 | 0.67 | 0.00 | 87 | 1011.8 |
| 20260507064007 | 42 | 360 | 1.0 | 4.0 | 0.00 | 0.67 | 0.00 | 87 | 1012.0 |
| 20260507063006 | 42 | 360 | 1.0 | 5.0 | 0.00 | 0.67 | 0.00 | 87 | 1012.0 |
| 20260507062214 | 42 | 360 | 1.0 | 6.0 | 0.00 | 0.67 | 0.00 | 88 | 1012.2 |
| 20260507061005 | 42 | 360 | 2.0 | 5.0 | 0.00 | 0.67 | 0.00 | 88 | 1012.2 |